Total_Precipitation_Accumulation
2.53 2.66 2.51 2.32 2.31 2.38 2.79 3.14 3.33 3.01 2.74 2.56 2.33 2.01 1.96 1.90 1.95 1.74 1.70 1.55 1.31 1.24 1.19 1.14 1.20 1.33 1.46 1.55 1.65 1.77 1.87 1.96 2.17 2.36 2.52 2.70 2.82 2.90
2.62 2.74 2.71 2.50 2.48 2.48 2.75 3.07 3.29 3.40 2.99 2.67 2.60 2.26 2.04 1.79 1.94 1.76 1.67 1.60 1.30 1.16 1.14 1.06 1.04 1.09 1.13 1.21 1.27 1.33 1.40 1.49 1.60 1.73 1.89 2.03 2.15 2.32
2.28 2.43 2.57 2.68 2.66 2.66 2.82 2.98 3.21 3.46 3.08 2.86 2.97 2.78 2.49 2.21 2.02 1.90 1.69 1.55 1.37 1.23 1.07 1.02 1.01 1.02 1.07 1.11 1.12 1.17 1.23 1.30 1.39 1.49 1.60 1.69 1.71 1.82
2.30 2.43 2.35 2.44 2.48 2.50 2.70 2.94 3.17 3.39 3.24 3.15 3.32 3.25 2.95 2.58 2.40 2.23 1.84 1.60 1.49 1.45 1.21 1.05 1.04 1.05 1.04 1.10 1.13 1.13 1.13 1.15 1.21 1.29 1.39 1.51 1.62 1.67
2.12 2.14 2.05 2.16 2.19 2.38 2.48 2.64 2.87 3.11 3.20 3.13 3.26 3.31 3.04 2.80 2.66 2.29 2.02 1.96 1.62 1.57 1.45 1.23 1.11 1.09 1.11 1.11 1.11 1.13 1.12 1.11 1.10 1.15 1.27 1.37 1.50 1.62
1.80 1.77 1.73 1.81 1.96 2.21 2.31 2.40 2.56 2.78 2.90 2.96 3.11 3.15 3.01 2.92 2.87 2.52 2.30 2.19 1.91 1.58 1.56 1.35 1.24 1.15 1.10 1.06 1.08 1.13 1.20 1.20 1.19 1.21 1.25 1.31 1.37 1.44
1.65 1.49 1.39 1.47 1.61 1.76 1.73 1.98 2.20 2.40 2.51 2.68 2.88 3.09 2.96 2.95 2.79 2.65 2.43 2.34 2.20 1.91 1.83 1.54 1.36 1.22 1.09 1.06 1.06 1.12 1.26 1.37 1.39 1.41 1.42 1.43 1.47 1.51
1.59 1.44 1.30 1.30 1.36 1.44 1.47 1.55 1.74 1.96 2.17 2.44 2.64 2.83 2.71 2.68 2.81 2.77 2.67 2.46 2.34 2.19 2.25 2.09 1.81 1.63 1.34 1.07 1.04 1.07 1.18 1.38 1.49 1.51 1.55 1.57 1.60 1.63
1.59 1.59 1.32 1.09 1.24 1.23 1.32 1.33 1.40 1.54 1.76 2.09 2.28 2.37 2.51 2.53 2.80 2.88 2.99 2.87 2.69 2.56 2.66 2.61 2.43 2.22 1.58 1.35 1.29 1.10 1.07 1.13 1.27 1.39 1.43 1.53 1.59 1.61
1.48 1.46 1.43 1.36 1.27 1.25 1.28 1.30 1.19 1.25 1.41 1.46 1.64 1.94 2.43 2.70 2.74 2.79 3.04 3.02 2.79 2.67 2.74 2.82 2.61 2.50 1.99 1.55 1.33 1.05 0.96 0.96 1.04 1.16 1.29 1.40 1.55 1.66
1.42 1.38 1.35 1.35 1.37 1.24 1.28 1.28 1.20 1.17 1.22 1.32 1.43 1.65 1.94 2.27 2.46 2.53 2.63 2.78 2.81 2.74 2.76 2.89 2.81 2.69 2.64 2.29 1.68 1.31 1.03 0.94 0.96 1.03 1.10 1.19 1.32 1.47
1.39 1.30 1.18 1.12 1.16 1.12 1.21 1.28 1.18 1.15 1.21 1.22 1.23 1.32 1.47 1.67 1.78 1.74 1.87 2.07 2.26 2.42 2.37 2.59 2.83 2.91 3.09 3.00 2.44 1.82 1.41 1.19 1.04 0.98 1.04 1.11 1.23 1.16
1.29 1.19 1.13 1.06 1.00 0.99 1.03 1.11 1.16 1.23 1.28 1.30 1.34 1.32 1.47 1.62 1.69 1.68 1.77 1.88 1.93 1.92 1.89 2.06 2.33 2.54 2.76 2.92 2.75 2.31 1.91 1.64 1.38 1.20 1.13 1.15 1.20 1.17
1.37 1.30 1.27 1.13 0.99 0.92 0.87 0.92 1.03 1.04 1.15 1.25 1.28 1.30 1.39 1.55 1.68 1.77 1.84 1.91 1.89 1.82 1.79 1.90 2.03 2.05 2.00 2.05 2.16 2.06 1.89 1.79 1.75 1.64 1.45 1.43 1.38 1.39
1.39 1.37 1.24 1.12 1.04 1.00 0.99 1.03 1.04 1.05 1.19 1.30 1.31 1.30 1.36 1.47 1.61 1.74 1.79 1.85 1.90 1.80 1.66 1.61 1.66 1.80 1.92 1.78 1.66 1.63 1.66 1.68 1.80 1.96 1.98 1.84 1.69 1.63
1.44 1.42 1.28 1.15 1.06 1.05 1.02 0.99 1.00 1.09 1.18 1.20 1.27 1.36 1.37 1.42 1.50 1.57 1.66 1.67 1.66 1.61 1.58 1.53 1.54 1.61 1.69 1.72 1.64 1.48 1.51 1.63 1.66 1.81 2.03 2.12 2.05 1.91
1.78 1.70 1.61 1.48 1.34 1.28 1.24 1.22 1.24 1.28 1.27 1.32 1.40 1.41 1.33 1.32 1.39 1.44 1.57 1.59 1.46 1.36 1.40 1.49 1.56 1.59 1.54 1.59 1.60 1.47 1.43 1.43 1.48 1.58 1.73 1.77 1.77 1.78
1.75 1.70 1.75 1.75 1.66 1.61 1.55 1.51 1.50 1.45 1.40 1.40 1.41 1.40 1.36 1.30 1.37 1.45 1.55 1.61 1.55 1.39 1.37 1.45 1.55 1.65 1.68 1.61 1.42 1.38 1.40 1.40 1.41 1.52 1.59 1.57 1.44 1.32
1.68 1.72 1.76 1.80 1.81 1.79 1.77 1.65 1.57 1.55 1.56 1.51 1.44 1.41 1.40 1.38 1.45 1.50 1.52 1.52 1.50 1.41 1.38 1.47 1.52 1.55 1.56 1.49 1.37 1.27 1.34 1.38 1.47 1.48 1.47 1.44 1.35 1.24
1.65 1.78 1.82 1.83 1.82 1.78 1.73 1.66 1.58 1.60 1.62 1.52 1.42 1.37 1.37 1.38 1.44 1.44 1.47 1.46 1.45 1.47 1.48 1.44 1.45 1.48 1.47 1.47 1.45 1.36 1.20 1.24 1.35 1.41 1.39 1.39 1.34 1.28
1.73 1.82 1.81 1.75 1.71 1.70 1.67 1.62 1.55 1.55 1.57 1.55 1.47 1.45 1.47 1.46 1.45 1.44 1.50 1.50 1.43 1.38 1.37 1.27 1.30 1.49 1.62 1.70 1.58 1.46 1.49 1.46 1.43 1.39 1.40 1.42 1.40 1.33
1.58 1.65 1.65 1.58 1.54 1.55 1.54 1.51 1.50 1.53 1.56 1.55 1.45 1.37 1.40 1.44 1.40 1.44 1.47 1.45 1.38 1.33 1.32 1.31 1.42 1.56 1.66 1.75 1.66 1.60 1.72 1.72 1.66 1.58 1.52 1.44 1.33 1.25
1.56 1.53 1.48 1.40 1.38 1.39 1.38 1.43 1.47 1.52 1.53 1.50 1.44 1.35 1.34 1.37 1.32 1.35 1.37 1.38 1.41 1.44 1.49 1.54 1.62 1.66 1.62 1.62 1.69 1.67 1.66 1.71 1.72 1.66 1.55 1.45 1.25 1.09